Change the Weather History Date:

Tuesday, April 9, 2013

  Actual Average Record
Temperature  
Mean Temperature 48 °F -  
Max Temperature 56 °F 53 °F 80 °F (2011)
Min Temperature 40 °F 33 °F 18 °F (1982)
Degree Days  
Heating Degree Days 16    
Moisture  
Dew Point 45 °F    
Average Humidity 90    
Maximum Humidity 93    
Minimum Humidity 81    
Precipitation  
Precipitation 1.00 in - - ()
Sea Level Pressure  
Sea Level Pressure 29.79 in    
Wind  
Wind Speed 16 mph (NE)    
Max Wind Speed 23 mph    
Max Gust Speed 30 mph    
Visibility 4 miles    
Events Rain    
Averages and records for this station are not official NWS values.
T = Trace of Precipitation, MM = Missing Value Source: NWS Daily Summary

Daily Weather History Graph

Daily Weather History Graph

Search for Another Location

Airport or City:

Trip Planner

Search our weather history database for the weather conditions in past years. The results will help you decide how hot, cold, wet, or windy it might be!

Date:

Astronomy

Apr. 09, 2013 Rise Set
Actual Time 6:45 AM CDT 7:51 PM CDT
Civil Twilight 6:17 AM CDT 8:19 PM CDT
Nautical Twilight 5:43 AM CDT 8:54 PM CDT
Astronomical Twilight 5:07 AM CDT 9:29 PM CDT
Moon 6:09 AM CDT (4/9) 7:27 PM CDT (4/9)
Length of Visible Light 14h 02m
Length of Day
13h 05m
Waning Crescent, 1% of the Moon is Illuminated
Apr 9
Waning Crescent
Apr 10
New
Apr 18
First Quarter
Apr 25
Full
May 2
Last Quarter

Hourly Weather History & Observations

Time (CDT) Temp. Windchill Dew Point Humidity Pressure Visibility Wind Dir Wind Speed Gust Speed Precip Events Conditions
12:15 AM 56.8 °F - 51.1 °F 81% 29.75 in 5.0 mi NE 15.0 mph 21.9 mph 0.03 in Rain Light Rain
12:35 AM 55.4 °F - 50.9 °F 85% 29.74 in 4.0 mi NE 18.4 mph 21.9 mph 0.08 in Rain Rain
12:55 AM 54.5 °F - 50.4 °F 86% 29.72 in 5.0 mi NE 21.9 mph 25.3 mph 0.09 in   Haze
1:15 AM 53.8 °F - 49.5 °F 85% 29.76 in 1.8 mi NE 18.4 mph - 0.18 in Rain Heavy Rain
1:35 AM 52.7 °F - 49.6 °F 89% 29.76 in 1.2 mi ENE 13.8 mph - 0.65 in Rain Heavy Rain
1:55 AM 52.7 °F - 49.6 °F 89% 29.75 in 3.0 mi ENE 19.6 mph 25.3 mph 0.70 in Rain Light Rain
2:15 AM 52.2 °F - 49.1 °F 89% 29.74 in 4.0 mi ENE 20.7 mph 28.8 mph 0.02 in Rain Light Rain
2:35 AM 51.3 °F - 48.2 °F 89% 29.74 in 4.0 mi ENE 16.1 mph 24.2 mph 0.02 in   Overcast
2:55 AM 50.9 °F - 47.8 °F 89% 29.76 in 5.0 mi NNE 11.5 mph 19.6 mph 0.02 in   Overcast
3:15 AM 50.5 °F - 47.3 °F 89% 29.74 in 5.0 mi NNE 16.1 mph 23.0 mph N/A   Overcast
3:35 AM 49.6 °F - 46.6 °F 89% 29.74 in 5.0 mi NE 15.0 mph 20.7 mph N/A   Overcast
3:55 AM 50.0 °F - 46.8 °F 89% 29.74 in 5.0 mi NE 15.0 mph 18.4 mph N/A   Overcast
4:15 AM 50.0 °F - 46.8 °F 89% 29.74 in 4.0 mi NE 15.0 mph - N/A   Overcast
4:35 AM 50.0 °F - 46.9 °F 89% 29.74 in 4.0 mi ENE 16.1 mph 23.0 mph N/A   Overcast
4:55 AM 50.0 °F - 47.3 °F 90% 29.73 in 4.0 mi ENE 11.5 mph 23.0 mph N/A Rain Light Rain
5:15 AM 50.2 °F - 47.3 °F 90% 29.71 in 4.0 mi ENE 16.1 mph 19.6 mph N/A   Overcast
5:35 AM 50.9 °F - 48.2 °F 90% 29.71 in 4.0 mi East 15.0 mph 20.7 mph N/A   Overcast
5:55 AM 51.4 °F - 48.6 °F 90% 29.71 in 4.0 mi East 15.0 mph 23.0 mph N/A   Overcast
6:15 AM 52.0 °F - 49.1 °F 90% 29.70 in 4.0 mi East 16.1 mph 21.9 mph N/A   Overcast
6:35 AM 52.5 °F - 49.6 °F 90% 29.70 in 4.0 mi East 18.4 mph 23.0 mph N/A   Overcast
6:55 AM 52.7 °F - 49.8 °F 90% 29.69 in 4.0 mi East 15.0 mph - N/A   Overcast
7:15 AM 53.2 °F - 50.5 °F 91% 29.70 in 5.0 mi East 15.0 mph 20.7 mph N/A   Overcast
7:35 AM 53.2 °F - 50.4 °F 90% 29.71 in 4.0 mi East 17.3 mph - N/A   Overcast
7:55 AM 52.9 °F - 50.2 °F 91% 29.70 in 2.5 mi East 13.8 mph - 0.01 in Rain Light Rain
8:15 AM 53.2 °F - 50.9 °F 92% 29.71 in 2.0 mi East 13.8 mph 17.3 mph N/A   Overcast
8:35 AM 53.6 °F - 51.1 °F 91% 29.74 in 3.0 mi NNE 5.8 mph - N/A   Overcast
8:55 AM 53.2 °F - 50.9 °F 92% 29.74 in 2.5 mi NE 9.2 mph - 0.03 in Rain Light Rain
9:15 AM 52.9 °F - 50.4 °F 91% 29.73 in 2.0 mi ENE 8.1 mph - 0.01 in Rain Light Rain
9:55 AM 49.8 °F - 47.1 °F 90% 29.76 in 4.0 mi North 19.6 mph 24.2 mph 0.01 in   Overcast
10:15 AM 47.3 °F - 44.6 °F 90% 29.75 in 5.0 mi NNE 13.8 mph - N/A   Overcast
10:35 AM 47.3 °F - 44.6 °F 90% 29.76 in 5.0 mi NNE 12.7 mph - N/A   Overcast
10:55 AM 47.7 °F - 45.3 °F 92% 29.75 in 4.0 mi NE 9.2 mph - N/A   Overcast
11:15 AM 48.7 °F - 46.4 °F 92% 29.75 in 3.0 mi NE 11.5 mph - N/A   Overcast
11:35 AM 49.3 °F - 46.8 °F 91% 29.76 in 3.0 mi North 8.1 mph - N/A   Overcast
11:55 AM 48.0 °F - 45.3 °F 90% 29.79 in 4.0 mi North 16.1 mph - N/A   Overcast
12:15 PM 46.6 °F - 43.9 °F 90% 29.79 in 5.0 mi North 23.0 mph - N/A   Overcast
12:35 PM 45.5 °F 38.3 °F 42.8 °F 90% 29.79 in 3.0 mi North 17.3 mph 26.5 mph N/A   Overcast
12:55 PM 45.3 °F 37.8 °F 42.8 °F 91% 29.79 in 2.0 mi North 18.4 mph - N/A   Overcast
1:15 PM 45.3 °F 39.0 °F 42.8 °F 91% 29.80 in 2.5 mi NNE 13.8 mph - N/A   Overcast
1:35 PM 44.4 °F 36.9 °F 41.7 °F 90% 29.81 in 4.0 mi NNE 17.3 mph - N/A   Overcast
1:55 PM 44.6 °F 36.9 °F 41.9 °F 90% 29.82 in 3.0 mi NNE 18.4 mph - N/A   Overcast
2:15 PM 44.6 °F 37.8 °F 42.1 °F 91% 29.82 in 2.5 mi NNE 15.0 mph 23.0 mph N/A   Overcast
2:35 PM 44.8 °F 38.0 °F 42.4 °F 91% 29.82 in 2.5 mi North 15.0 mph - N/A   Overcast
2:55 PM 44.6 °F 37.4 °F 41.9 °F 90% 29.81 in 4.0 mi NNE 16.1 mph 24.2 mph N/A   Overcast
3:15 PM 44.6 °F 36.6 °F 41.9 °F 90% 29.82 in 7.0 mi NNE 19.6 mph 24.2 mph N/A   Overcast
3:35 PM 44.1 °F 36.8 °F 41.0 °F 89% 29.83 in 7.0 mi NNE 16.1 mph - N/A   Overcast
3:55 PM 44.1 °F 36.8 °F 41.2 °F 90% 29.83 in 7.0 mi NNE 16.1 mph 19.6 mph N/A   Overcast
4:15 PM 43.9 °F 36.5 °F 41.2 °F 90% 29.84 in 4.0 mi NNE 16.1 mph 25.3 mph N/A   Overcast
4:35 PM 43.7 °F 36.0 °F 41.4 °F 91% 29.83 in 2.5 mi NNE 17.3 mph 23.0 mph N/A   Overcast
4:55 PM 43.7 °F 36.9 °F 41.2 °F 91% 29.82 in 2.5 mi NNE 13.8 mph - N/A   Overcast
5:15 PM 43.3 °F 36.1 °F 41.0 °F 91% 29.81 in 2.5 mi NNE 15.0 mph 21.9 mph N/A   Overcast
5:35 PM 43.3 °F 35.2 °F 41.0 °F 91% 29.79 in 4.0 mi NE 18.4 mph 24.2 mph N/A   Overcast
5:55 PM 42.8 °F 35.4 °F 40.5 °F 91% 29.81 in 1.8 mi NE 15.0 mph 21.9 mph N/A   Overcast
6:15 PM 42.8 °F 35.8 °F 40.5 °F 91% 29.83 in 2.0 mi NE 13.8 mph - N/A   Overcast
6:35 PM 42.6 °F 35.2 °F 40.1 °F 91% 29.82 in 3.0 mi NE 15.0 mph 23.0 mph N/A Rain Light Rain
6:55 PM 42.4 °F 35.3 °F 40.3 °F 92% 29.83 in 4.0 mi ENE 13.8 mph 19.6 mph N/A Rain Light Rain
7:15 PM 42.3 °F 35.9 °F 40.1 °F 92% 29.83 in 5.0 mi ENE 11.5 mph 18.4 mph 0.04 in Rain Rain
7:35 PM 42.1 °F 37.1 °F 40.1 °F 93% 29.83 in 5.0 mi ENE 8.1 mph - 0.07 in Rain Light Rain
7:55 PM 42.3 °F 36.3 °F 40.3 °F 93% 29.82 in 5.0 mi ENE 10.4 mph - 0.08 in Rain Light Rain
8:15 PM 42.4 °F 37.5 °F 40.3 °F 92% 29.85 in 7.0 mi North 8.1 mph - N/A   Overcast
8:35 PM 42.1 °F 34.5 °F 40.1 °F 93% 29.86 in 7.0 mi North 15.0 mph - N/A Rain Rain
8:55 PM 41.9 °F 35.4 °F 40.1 °F 93% 29.89 in 10.0 mi North 11.5 mph - 0.01 in Rain Light Rain
9:15 PM 41.7 °F 33.4 °F 39.7 °F 93% 29.84 in 7.0 mi NE 17.3 mph - N/A Rain Light Rain
9:35 PM 41.9 °F 35.4 °F 39.6 °F 91% 29.87 in 10.0 mi NNE 11.5 mph 17.3 mph N/A   Overcast
9:55 PM 41.9 °F 35.0 °F 39.7 °F 92% 29.87 in 10.0 mi NE 12.7 mph - N/A   Overcast
10:15 PM 42.1 °F 35.2 °F 39.7 °F 91% 29.89 in 10.0 mi North 12.7 mph - N/A   Overcast
10:35 PM 41.9 °F 34.3 °F 39.4 °F 91% 29.89 in 10.0 mi NNE 15.0 mph - N/A   Drizzle
10:55 PM 41.9 °F 34.3 °F 39.4 °F 91% 29.89 in 10.0 mi NNE 15.0 mph - N/A Rain Light Rain
11:15 PM 41.9 °F 34.3 °F 39.2 °F 90% 29.89 in 7.0 mi North 15.0 mph - 0.02 in Rain Heavy Rain
11:35 PM 41.4 °F 32.4 °F 39.2 °F 92% 29.96 in 5.0 mi NNW 19.6 mph - 0.03 in Rain Light Rain
11:55 PM 40.6 °F 30.9 °F 38.5 °F 92% 29.95 in 4.0 mi North 21.9 mph 29.9 mph 0.05 in Rain Light Rain